DateTime,DeltaTime,Roll,TargetAngle,Position,Power
2022-05-24 11:43:30.789,0,0.29,6.19,-3,-39.05
2022-05-24 11:43:30.904,0.114996358752251,1.34,9.81,-2,-55.91
2022-05-24 11:43:31.018,0.228996947407722,1.21,4.18,3,-14.12
2022-05-24 11:43:31.133,0.344003364443779,0.91,2.2,5,11.53
2022-05-24 11:43:31.247,0.458003953099251,0.87,3.24,6,7.28
2022-05-24 11:43:31.363,0.57399608194828,0.42,-0.33,6,29.05
2022-05-24 11:43:31.476,0.687000900506973,-0.56,-6.5,6,54.48
2022-05-24 11:43:31.592,0.803003087639809,-0.58,-2.34,2,25.35
2022-05-24 11:43:31.706,0.91700367629528,0.66,8.01,-3,-40.26
2022-05-24 11:43:31.821,1.03200003504753,1.76,11.7,0,-65.45
2022-05-24 11:43:31.936,1.14699639379978,1.55,5.1,5,-6.25
2022-05-24 11:43:32.050,1.26099698245525,1.18,2.98,8,16.33
2022-05-24 11:43:32.161,1.37200020253658,1.3,5.58,7,9.18
2022-05-24 11:43:32.275,1.48600079119205,0.86,1.48,7,24.4
2022-05-24 11:43:32.390,1.60099714994431,-0.15,-5.05,8,53.51
2022-05-24 11:43:32.505,1.71600356698036,-0.21,-1.1,5,29.72
2022-05-24 11:43:32.620,1.83099992573261,0.95,8.75,1,-29.89
2022-05-24 11:43:32.734,1.94500051438808,2.14,13.6,2,-57.62
2022-05-24 11:43:32.849,2.05999687314034,2.24,9.16,5,-19.28
2022-05-24 11:43:32.965,2.17599906027317,1.82,5.28,8,7.33
2022-05-24 11:43:33.079,2.28999964892864,1.6,5.23,9,13.53
2022-05-24 11:43:33.193,2.40400023758411,0.83,-0.1,9,41.47
2022-05-24 11:43:33.307,2.51800082623959,-0.01,-3.68,8,51.93
2022-05-24 11:43:33.423,2.63400301337242,0.24,2.05,4,13.13
2022-05-24 11:43:33.537,2.74800360202789,1.01,7.3,1,-23.77
2022-05-24 11:43:33.652,2.86299996078014,1.79,10.35,3,-42.23
2022-05-24 11:43:33.763,2.97400318086147,2.15,9.98,4,-23.28
2022-05-24 11:43:33.878,3.08899953961372,2.24,9.14,8,-17.81
2022-05-24 11:43:33.992,3.2030001282692,2.06,7.21,9,8.99
2022-05-24 11:43:34.106,3.31700071692467,1.35,2.14,9,31.63
2022-05-24 11:43:34.221,3.43199707567692,0.31,-3.32,9,51.64
2022-05-24 11:43:34.336,3.54700349271297,0.16,-0.05,5,29.14
2022-05-24 11:43:34.451,3.66199985146523,0.8,5.96,2,-15.86
2022-05-24 11:43:34.565,3.7760004401207,1.9,12.17,0,-48.88
2022-05-24 11:43:34.680,3.89099679887295,2.45,11.98,3,-46.62
2022-05-24 11:43:34.794,4.00499738752842,2.18,7.31,7,-5.87
2022-05-24 11:43:34.909,4.12000380456448,1.82,5.52,10,12.67
2022-05-24 11:43:35.024,4.23500016331673,1.25,2.38,9,35.94
2022-05-24 11:43:35.138,4.3490007519722,0.61,-0.38,9,37.37
2022-05-24 11:43:35.253,4.46399711072445,0.34,0.15,6,33.28
2022-05-24 11:43:35.368,4.57900352776051,0.54,2.98,3,5.62
2022-05-24 11:43:35.478,4.68900091946125,1.29,8.3,1,-28.08
2022-05-24 11:43:35.593,4.8039972782135,2.21,12.63,3,-49.34
2022-05-24 11:43:35.708,4.91900369524956,2.42,10.37,5,-21.6
2022-05-24 11:43:35.823,5.03400005400181,2.11,6.9,9,-0.5
2022-05-24 11:43:35.940,5.15099801123142,1.62,4.19,9,25.71
2022-05-24 11:43:36.052,5.26299700140953,0.88,0.22,9,37.23
2022-05-24 11:43:36.167,5.37800341844559,0.25,-1.77,7,42.74
2022-05-24 11:43:36.281,5.49200400710106,0.11,-0.22,4,23.39
2022-05-24 11:43:36.396,5.60700036585331,0.89,6.86,0,-21.77
2022-05-24 11:43:36.510,5.72100095450878,1.96,12.36,2,-56.34
2022-05-24 11:43:36.625,5.83599731326103,2.16,9.26,5,-20.13
2022-05-24 11:43:36.740,5.95100373029709,1.93,6.56,7,1.06
2022-05-24 11:43:36.854,6.06500431895256,1.85,6.87,7,1.91
2022-05-24 11:43:36.969,6.18000067770481,1.39,3.42,8,16.92
2022-05-24 11:43:37.081,6.29199966788292,0.11,-5.22,7,60.96
2022-05-24 11:43:37.194,6.40499442815781,-0.46,-4.28,5,39.08
2022-05-24 11:43:37.309,6.52000084519386,0.33,4.76,1,-12.54
2022-05-24 11:43:37.424,6.63499720394611,1.47,10.71,0,-47.83
2022-05-24 11:43:37.539,6.75000362098217,1.99,10,2,-37.28
2022-05-24 11:43:37.653,6.86400420963764,1.84,6.56,6,-10.64
2022-05-24 11:43:37.768,6.97900056838989,1.84,7.16,8,-1.14
2022-05-24 11:43:37.883,7.09399692714214,1.72,6.18,8,9.2
2022-05-24 11:43:37.997,7.20799751579762,0.76,-1.23,8,42.54
2022-05-24 11:43:38.111,7.32199810445309,-0.41,-6.72,7,61.12
2022-05-24 11:43:38.227,7.43800029158592,-0.36,-1.16,2,21.53
2022-05-24 11:43:38.342,7.55299665033817,0.85,8.59,-2,-42.93
2022-05-24 11:43:38.456,7.66699723899364,1.54,9.01,0,-46.32
2022-05-24 11:43:38.571,7.7820036560297,1.35,4.44,3,-7.75
2022-05-24 11:43:38.682,7.89299681782722,1.26,4.53,6,-2.22
2022-05-24 11:43:38.795,8.00600163638592,1.6,7.7,6,-7.04
2022-05-24 11:43:38.911,8.12200382351875,1.2,2.95,6,16.79
2022-05-24 11:43:39.025,8.23600441217422,-0.35,-8.14,5,66.32
2022-05-24 11:43:39.140,8.35100077092648,-1.06,-7.23,3,42.66
2022-05-24 11:43:39.255,8.46599712967873,-0.35,1.77,-3,-8.78
2022-05-24 11:43:39.369,8.5799977183342,0.69,7.26,-4,-51.7
2022-05-24 11:43:39.484,8.69500413537025,0.95,4.83,-2,-30.71
2022-05-24 11:43:39.598,8.80899466574192,0.84,2.81,2,-13.31
2022-05-24 11:43:39.713,8.92400108277798,0.99,4.48,4,-7.32
2022-05-24 11:43:39.828,9.03899744153023,0.89,3.05,5,6.54
2022-05-24 11:43:39.943,9.15400385856628,-0.13,-5.01,4,47.44
2022-05-24 11:43:40.058,9.26900021731853,-1.13,-8.75,2,50.68
2022-05-24 11:43:40.172,9.38300080597401,-1.09,-4.09,-3,13.76
2022-05-24 11:43:40.283,9.49400402605534,-0.27,2.56,-5,-35.28
2022-05-24 11:43:40.398,9.60900038480759,0.46,4.94,-5,-42.39
2022-05-24 11:43:40.512,9.72300097346306,0.67,3.59,0,-30.77
2022-05-24 11:43:40.626,9.83700156211853,0.71,2.9,3,-4.89
2022-05-24 11:43:40.741,9.95199792087078,0.84,3.86,4,-2.4
2022-05-24 11:43:40.856,10.0670043379068,0.46,0.11,5,18.58
2022-05-24 11:43:40.970,10.1809948682785,-0.62,-7.09,4,53.78
2022-05-24 11:43:41.085,10.2960012853146,-1.19,-7.18,1,40.06
2022-05-24 11:43:41.201,10.4120034724474,-0.53,0.83,-4,-12.81
2022-05-24 11:43:41.314,10.5249982327223,0.46,6.11,-4,-49.76
2022-05-24 11:43:41.429,10.6399945914745,0.89,5.35,-3,-33.52
2022-05-24 11:43:41.544,10.7550010085106,0.89,3.52,2,-21.19
2022-05-24 11:43:41.659,10.8699973672628,0.94,3.9,4,-2.39
2022-05-24 11:43:41.773,10.9839979559183,0.81,2.58,5,7.98
2022-05-24 11:43:41.884,11.0950011759996,-0.18,-5.02,5,46.76
2022-05-24 11:43:41.998,11.2090017646551,-1.05,-7.94,4,51.6
2022-05-24 11:43:42.113,11.3239981234074,-0.84,-2.35,0,14.78
2022-05-24 11:43:42.228,11.4389944821596,0.12,4.64,-4,-30.98
2022-05-24 11:43:42.342,11.5529950708151,0.9,6.97,-3,-48.65
2022-05-24 11:43:42.458,11.6689972579479,1,4.32,0,-22.25
2022-05-24 11:43:42.572,11.7829978466034,0.92,3.25,3,-7.31
2022-05-24 11:43:42.687,11.8980042636395,0.92,3.62,6,0.21
2022-05-24 11:43:42.802,12.0130006223917,0.44,-0.43,6,31.96
2022-05-24 11:43:42.916,12.1270012110472,-0.44,-5.55,5,48.93
2022-05-24 11:43:43.032,12.24300339818,-0.68,-3.7,1,28.39
2022-05-24 11:43:43.145,12.3559981584549,-0.33,0.26,-3,-6.9
2022-05-24 11:43:43.260,12.4709945172071,0.39,4.69,-4,-38.57
2022-05-24 11:43:43.375,12.5860009342432,1.05,6.95,-2,-44.54
2022-05-24 11:43:43.485,12.6959983259439,1.05,4.08,2,-16.91
2022-05-24 11:43:43.600,12.8109946846962,0.77,1.75,5,7.83
2022-05-24 11:43:43.715,12.9260011017323,0.33,-0.61,5,26.35
2022-05-24 11:43:43.829,13.0400016903877,-0.52,-5.75,5,45.59
2022-05-24 11:43:43.944,13.15499804914,-0.97,-5.73,2,39.6
2022-05-24 11:43:44.059,13.2699944078922,-0.83,-2.65,-3,10.15
2022-05-24 11:43:44.173,13.3839949965477,-0.17,2.26,-4,-31
2022-05-24 11:43:44.288,13.4990014135838,0.58,5.55,-4,-39.98
2022-05-24 11:43:44.403,13.613997772336,0.91,4.97,0,-32.32
2022-05-24 11:43:44.518,13.7290041893721,0.7,1.85,4,1.73
2022-05-24 11:43:44.633,13.8440005481243,0.29,-0.68,4,24.9
2022-05-24 11:43:44.747,13.9580011367798,-0.33,-3.99,4,33.33
2022-05-24 11:43:44.862,14.072997495532,-1.05,-7.23,3,45.95
2022-05-24 11:43:44.977,14.1880039125681,-1.37,-6.72,-2,33.89
2022-05-24 11:43:45.087,14.2980013042688,-0.52,1.63,-5,-30.04
2022-05-24 11:43:45.202,14.4129976630211,0.45,6.01,-6,-49.75
2022-05-24 11:43:45.316,14.5269982516766,0.63,3.27,0,-31.93
2022-05-24 11:43:45.431,14.6419946104288,0.31,-0.23,3,12.46
2022-05-24 11:43:45.546,14.7570010274649,0.33,1.39,3,6.93
2022-05-24 11:43:45.660,14.8710016161203,0.01,-1.37,3,19.05
2022-05-24 11:43:45.775,14.9859979748726,-1.22,-10.12,3,59.65
2022-05-24 11:43:45.890,15.1010043919086,-1.82,-9.72,1,46.41
2022-05-24 11:43:46.005,15.2160007506609,-0.91,0.45,-4,-13.92
2022-05-24 11:43:46.119,15.3300013393164,0.48,7.92,-5,-60.28
2022-05-24 11:43:46.233,15.4440019279718,0.82,4.7,-2,-32.89
2022-05-24 11:43:46.348,15.5589982867241,0.6,1.36,3,-4.99
2022-05-24 11:43:46.463,15.6739946454763,0.69,3.07,5,2.86
2022-05-24 11:43:46.579,15.7899968326092,0.63,2.23,5,12.77
2022-05-24 11:43:46.693,15.9039974212646,-0.38,-5.91,4,49.98
2022-05-24 11:43:46.803,16.0139948129654,-1.26,-8.74,3,49.45
2022-05-24 11:43:46.918,16.1290012300014,-0.98,-2.64,-2,11.49
2022-05-24 11:43:47.032,16.2430018186569,0.1,5.1,-5,-42.42
2022-05-24 11:43:47.147,16.3579981774092,0.74,5.67,-2,-44.19
2022-05-24 11:43:47.262,16.4729945361614,0.8,3.36,2,-13.94
2022-05-24 11:43:47.376,16.5869951248169,0.8,3.17,4,-0.42
2022-05-24 11:43:47.491,16.702001541853,0.95,4.36,5,-1.95
2022-05-24 11:43:47.606,16.8169979006052,0.42,-0.72,5,27.35
2022-05-24 11:43:47.720,16.9309984892607,-0.62,-6.98,5,51.24
2022-05-24 11:43:47.835,17.0459948480129,-1.05,-5.93,1,38.95
2022-05-24 11:43:47.949,17.1599954366684,-0.37,1.54,-4,-16.05
2022-05-24 11:43:48.064,17.2750018537045,0.86,8.75,-4,-62.12
2022-05-24 11:43:48.179,17.3899982124567,1.17,5.94,0,-33.01
2022-05-24 11:43:48.293,17.5039988011122,0.76,1.12,4,6.54
2022-05-24 11:43:48.404,17.6150020211935,0.72,2.64,5,7.25
2022-05-24 11:43:48.519,17.7299983799458,0.49,0.91,5,17.8
2022-05-24 11:43:48.634,17.844994738698,-0.57,-6.86,6,53.45
2022-05-24 11:43:48.748,17.9589953273535,-1.26,-7.92,3,54.08
2022-05-24 11:43:48.863,18.0740017443895,-0.48,1.51,-4,-10.81
2022-05-24 11:43:48.978,18.1889981031418,0.87,9.34,-4,-68.56
2022-05-24 11:43:49.093,18.303994461894,1.02,4.65,0,-25.79
2022-05-24 11:43:49.208,18.4190008789301,0.54,-0.03,3,10.7
2022-05-24 11:43:49.322,18.5330014675856,0.87,4.86,4,-10.12
2022-05-24 11:43:49.436,18.647002056241,1.25,6.52,5,-11.14
2022-05-24 11:43:49.551,18.7619984149933,0.64,-0.16,5,27.92
2022-05-24 11:43:49.666,18.8769947737455,-0.66,-8.23,4,58.7
2022-05-24 11:43:49.780,18.990995362401,-0.92,-4.78,0,26.58
2022-05-24 11:43:49.895,19.1060017794371,0.23,5.95,-4,-40.51
2022-05-24 11:43:50.006,19.2169949412346,1.08,7.93,-4,-51.63
2022-05-24 11:43:50.121,19.3320013582706,1.07,4.1,2,-24.88
2022-05-24 11:43:50.235,19.4460019469261,0.88,2.65,6,6.62
2022-05-24 11:43:50.350,19.5609983056784,1.12,5.39,7,3.1
2022-05-24 11:43:50.464,19.6749988943338,0.78,1.56,7,25.66
2022-05-24 11:43:50.579,19.7899952530861,-0.19,-4.98,6,52.57
2022-05-24 11:43:50.694,19.9050016701221,-0.37,-2.27,3,25.64
2022-05-24 11:43:50.809,20.0199980288744,0.27,3.86,-1,-14.41
2022-05-24 11:43:50.924,20.1349943876266,1.18,8.59,0,-46.19
2022-05-24 11:43:51.038,20.2489949762821,1.57,7.79,2,-26.38
2022-05-24 11:43:51.153,20.3640013933182,1.7,7.25,4,-16.75
2022-05-24 11:43:51.268,20.4789977520704,1.67,6.39,7,-6.26
2022-05-24 11:43:51.382,20.5929983407259,1.25,3.04,7,21.52
2022-05-24 11:43:51.497,20.7079946994781,0.18,-4.02,7,48.9
2022-05-24 11:43:51.608,20.8189979195595,-0.56,-5.44,4,47.79
2022-05-24 11:43:51.722,20.932998508215,-0.19,0.91,0,-0.85
2022-05-24 11:43:51.837,21.0479948669672,0.88,8.09,-3,-44.24
2022-05-24 11:43:51.952,21.1630012840033,1.56,9.05,1,-50.12
2022-05-24 11:43:52.066,21.2770018726587,1.5,5.56,4,-7.04
2022-05-24 11:43:52.181,21.391998231411,1.43,5.3,7,-0.92
2022-05-24 11:43:52.295,21.5059988200665,1.58,6.79,7,2.21
2022-05-24 11:43:52.410,21.6209951788187,0.72,-0.92,7,38.83
2022-05-24 11:43:52.524,21.7349957674742,-0.61,-8.24,7,66.08
2022-05-24 11:43:52.639,21.8500021845102,-0.78,-3.78,1,33.92
2022-05-24 11:43:52.754,21.9649985432625,0.53,7.76,-4,-46.96
2022-05-24 11:43:52.868,22.078999131918,1.44,9.6,-3,-59.2
2022-05-24 11:43:52.983,22.1939954906702,1.32,4.66,3,-20.46
2022-05-24 11:43:53.094,22.3049987107515,1.12,3.48,6,6.93
2022-05-24 11:43:53.208,22.418999299407,1.59,8.29,8,-11.56
2022-05-24 11:43:53.323,22.5339956581593,1.32,3.94,7,22.37
2022-05-24 11:43:53.437,22.6479962468147,0.11,-4.84,7,53.34
2022-05-24 11:43:53.553,22.7639984339476,-0.78,-6.95,4,54.27
2022-05-24 11:43:53.668,22.8789947926998,-0.29,1.04,-4,-3.51
2022-05-24 11:43:53.782,22.9929953813553,0.8,7.91,-4,-63.2
2022-05-24 11:43:53.897,23.1080017983913,1.03,5.02,0,-29.51
2022-05-24 11:43:54.011,23.2220023870468,0.94,3.23,3,-5.17
2022-05-24 11:43:54.126,23.3369987457991,1.69,9.86,5,-31.19
2022-05-24 11:43:54.241,23.4519951045513,1.89,8.25,6,-9.04
2022-05-24 11:43:54.355,23.5659956932068,0.51,-4.01,7,52.3
2022-05-24 11:43:54.470,23.6810021102428,-0.84,-9.2,6,67.9
2022-05-24 11:43:54.585,23.7959984689951,-0.75,-2.5,-2,21.3
2022-05-24 11:43:54.695,23.9059958606958,0.24,5.25,-5,-46.64
2022-05-24 11:43:54.810,24.0210022777319,0.35,1.88,-4,-24.92
2022-05-24 11:43:54.924,24.1350028663874,0.44,2.07,0,-21.97
2022-05-24 11:43:55.039,24.2499992251396,1.05,6.79,2,-27.2
2022-05-24 11:43:55.154,24.3649955838919,1.55,8.21,4,-23.95
2022-05-24 11:43:55.268,24.4789961725473,0.9,0.66,6,22.47
2022-05-24 11:43:55.384,24.5949983596802,-0.46,-7.76,6,62.39
2022-05-24 11:43:55.498,24.7089989483356,-0.95,-5.84,2,41.17
2022-05-24 11:43:55.613,24.8239953070879,-0.5,0.01,-4,-4.51
2022-05-24 11:43:55.728,24.939001724124,-0.13,1.1,-2,-26.85
2022-05-24 11:43:55.843,25.0539980828762,0.43,4.14,-4,-23.25
2022-05-24 11:43:55.956,25.1670029014349,1.16,7.67,-2,-50.09
2022-05-24 11:43:56.071,25.2819992601871,1.21,4.95,2,-19.47
2022-05-24 11:43:56.187,25.39800144732,0.5,-1.11,5,24.04
2022-05-24 11:43:56.297,25.5079988390207,-0.09,-2.97,4,35.43
2022-05-24 11:43:56.411,25.6219994276762,-0.39,-2.87,3,24.28
2022-05-24 11:43:56.526,25.7369957864285,-0.78,-4.73,0,30.7
2022-05-24 11:43:56.641,25.8520022034645,-0.91,-4.1,-3,12.07
2022-05-24 11:43:56.755,25.96600279212,-0.31,1.37,-5,-25.15
2022-05-24 11:43:56.869,26.0800033807755,0.6,6.37,-5,-49.47
2022-05-24 11:43:56.985,26.1959955096245,0.82,4.15,0,-30.86
2022-05-24 11:43:57.100,26.3110019266605,0.43,-0,3,11.17
2022-05-24 11:43:57.214,26.425002515316,0.27,0.33,3,12.5
2022-05-24 11:43:57.329,26.5399988740683,-0.11,-2.06,4,21.25
2022-05-24 11:43:57.443,26.6539994627237,-0.76,-5.81,3,42.32
2022-05-24 11:43:57.558,26.768995821476,-0.93,-4.36,1,24.73
2022-05-24 11:43:57.673,26.884002238512,-0.25,2.02,-3,-13.31
2022-05-24 11:43:57.788,26.9989985972643,0.77,7.47,-2,-49.69
2022-05-24 11:43:57.902,27.1129991859198,1.09,5.64,0,-24.51
2022-05-24 11:43:58.013,27.2240024060011,0.9,2.66,4,-3.97
2022-05-24 11:43:58.127,27.3380029946566,0.99,4.24,5,1.37
2022-05-24 11:43:58.242,27.4529993534088,0.95,3.52,5,6.77
2022-05-24 11:43:58.357,27.5679957121611,0.27,-1.93,5,31.89
2022-05-24 11:43:58.472,27.6830021291971,-0.54,-5.67,5,44.1
2022-05-24 11:43:58.586,27.7970027178526,-0.42,-1.14,2,17.48
2022-05-24 11:43:58.700,27.9110033065081,0.62,6.98,1,-31.64
2022-05-24 11:43:58.815,28.0259996652603,1.25,7.66,0,-25.91
2022-05-24 11:43:58.930,28.1409960240126,1.4,6.08,2,-21.42
2022-05-24 11:43:59.044,28.254996612668,1.33,4.92,5,-6.89
2022-05-24 11:43:59.160,28.3709987998009,1.24,4.45,5,6.05
2022-05-24 11:43:59.275,28.4859951585531,0.74,0.68,5,20.4
2022-05-24 11:43:59.389,28.5999957472086,-0.29,-5.64,5,47.48
2022-05-24 11:43:59.503,28.7139963358641,-0.46,-2.53,3,23.72
2022-05-24 11:43:59.614,28.8249995559454,0.26,4.12,1,-14.79
2022-05-24 11:43:59.729,28.9399959146976,1.04,7.46,1,-30.29
2022-05-24 11:43:59.844,29.0550023317337,1.38,6.87,2,-20.9
2022-05-24 11:43:59.958,29.1690029203892,1.43,5.77,4,-11.68
2022-05-24 11:44:00.073,29.2839992791414,1.45,5.72,4,-4.56
2022-05-24 11:44:00.188,29.3989956378937,1.28,4.28,4,-0.17
2022-05-24 11:44:00.303,29.5140020549297,0.46,-1.8,5,28.3
2022-05-24 11:44:00.417,29.6280026435852,-0.44,-5.66,4,45.17
2022-05-24 11:44:00.532,29.7429990023375,-0.33,-0.82,3,10.12
2022-05-24 11:44:00.646,29.8569995909929,0.5,5.58,1,-18.76
2022-05-24 11:44:00.761,29.9719959497452,1.22,7.95,1,-31.18
2022-05-24 11:44:00.876,30.0870023667812,1.34,5.69,1,-14.79
2022-05-24 11:44:00.990,30.2010029554367,1.35,5.35,3,-16.47
2022-05-24 11:44:01.105,30.315999314189,1.1,3.23,3,3.32
2022-05-24 11:44:01.216,30.4270025342703,0.46,-1,4,19.03
2022-05-24 11:44:01.330,30.5410031229258,-0.59,-6.89,4,48.32
2022-05-24 11:44:01.445,30.655999481678,-0.69,-3.11,3,21.3
2022-05-24 11:44:01.560,30.7709958404303,0.03,3.25,0,-9.94
2022-05-24 11:44:01.674,30.8849964290857,0.86,6.95,0,-33.81
2022-05-24 11:44:01.789,31.0000028461218,1.14,5.68,1,-19.34
2022-05-24 11:44:01.903,31.1140034347773,1.12,4.26,2,-9.39
2022-05-24 11:44:02.018,31.2289997935295,1.01,3.47,2,-3.92
